When you browse on this site, cookies collect data to enhance your experience and personalize the content and advertising you see.
Visit our Privacy Policy to learn more. By continuing to use the site, you agree to this use of cookies and data.

Hourly Weather Luchenki

Today, 5 August, Wednesday

Time Temperature Precipitation Wind Pressure Humidity
00:00 +19°C° 0 mm 4 mps 747 mmHg 79%
01:00 +19°C° 0 mm 4 mps 747 mmHg 80%
02:00 +18°C° 0 mm 4 mps 747 mmHg 80%
03:00 +18°C° 0 mm 4 mps 747 mmHg 81%
04:00 +18°C° 0 mm 4 mps 747 mmHg 82%
05:00 +18°C° 0 mm 4 mps 747 mmHg 82%
06:00 +18°C° 0 mm 4 mps 747 mmHg 81%
07:00 +19°C° 0 mm 4 mps 748 mmHg 79%
08:00 +19°C° 0 mm 4 mps 748 mmHg 78%
09:00 +20°C° 0 mm 3 mps 748 mmHg 75%
10:00 +22°C° 0 mm 3 mps 749 mmHg 73%
11:00 +24°C° 0 mm 3 mps 749 mmHg 70%
12:00 +24°C° 0 mm 2 mps 749 mmHg 73%
13:00 +24°C° 0 mm 2 mps 749 mmHg 75%
14:00 +24°C° 0 mm 2 mps 749 mmHg 77%
15:00 +24°C° 0.1 mm 2 mps 749 mmHg 78%
16:00 +24°C° 0.1 mm 2 mps 749 mmHg 80%
17:00 +24°C° 0.1 mm 1 mps 749 mmHg 81%
18:00 +23°C° 0.3 mm 1 mps 750 mmHg 86%
19:00 +22°C° 0.3 mm 1 mps 750 mmHg 90%
20:00 +21°C° 0.3 mm 1 mps 750 mmHg 94%
21:00 +20°C° 0 mm 1 mps 750 mmHg 95%
22:00 +19°C° 0 mm 1 mps 750 mmHg 96%
23:00 +19°C° 0 mm 1 mps 751 mmHg 97%

Tomorrow, 6 August, Thursday

Time Temperature Precipitation Wind Pressure Humidity
00:00 +18°C° 0 mm 1 mps 751 mmHg 97%
01:00 +18°C° 0 mm 1 mps 751 mmHg 97%
02:00 +18°C° 0 mm 1 mps 752 mmHg 97%
03:00 +16°C° 0 mm 1 mps 752 mmHg 97%
04:00 +16°C° 0 mm 1 mps 752 mmHg 97%
05:00 +15°C° 0 mm 2 mps 752 mmHg 97%
06:00 +17°C° 0 mm 2 mps 752 mmHg 92%
07:00 +18°C° 0 mm 2 mps 753 mmHg 87%
08:00 +19°C° 0 mm 2 mps 753 mmHg 82%
09:00 +21°C° 0 mm 2 mps 753 mmHg 74%
10:00 +23°C° 0 mm 2 mps 754 mmHg 65%
11:00 +25°C° 0 mm 2 mps 754 mmHg 56%
12:00 +25°C° 0 mm 2 mps 754 mmHg 54%
13:00 +26°C° 0 mm 2 mps 754 mmHg 51%
14:00 +26°C° 0 mm 3 mps 754 mmHg 49%
15:00 +26°C° 0 mm 2 mps 754 mmHg 52%
16:00 +25°C° 0 mm 2 mps 754 mmHg 54%
17:00 +25°C° 0 mm 2 mps 754 mmHg 57%
18:00 +23°C° 0 mm 2 mps 754 mmHg 63%
19:00 +20°C° 0 mm 2 mps 755 mmHg 70%
20:00 +19°C° 0 mm 1 mps 755 mmHg 76%
21:00 +18°C° 0 mm 1 mps 755 mmHg 79%
22:00 +17°C° 0 mm 2 mps 755 mmHg 81%
23:00 +16°C° 0 mm 2 mps 755 mmHg 84%

Day after tomorrow, 7 August, Friday

Time Temperature Precipitation Wind Pressure Humidity
00:00 +15°C° 0 mm 1 mps 756 mmHg 86%
01:00 +15°C° 0 mm 1 mps 756 mmHg 87%
02:00 +15°C° 0 mm 1 mps 756 mmHg 89%
03:00 +15°C° 0 mm 1 mps 756 mmHg 90%
04:00 +14°C° 0 mm 1 mps 756 mmHg 92%
05:00 +14°C° 0 mm 1 mps 756 mmHg 93%
06:00 +16°C° 0 mm 1 mps 756 mmHg 86%
07:00 +19°C° 0 mm 1 mps 757 mmHg 80%
08:00 +21°C° 0 mm 1 mps 757 mmHg 73%
09:00 +21°C° 0 mm 2 mps 757 mmHg 69%
10:00 +24°C° 0 mm 2 mps 757 mmHg 64%
11:00 +25°C° 0 mm 2 mps 757 mmHg 59%
12:00 +25°C° 0.1 mm 2 mps 757 mmHg 59%
13:00 +25°C° 0.1 mm 1 mps 756 mmHg 59%
14:00 +26°C° 0.1 mm 1 mps 756 mmHg 59%
15:00 +25°C° 0.3 mm 1 mps 756 mmHg 66%
16:00 +24°C° 0.3 mm 1 mps 756 mmHg 73%
17:00 +23°C° 0.3 mm 1 mps 756 mmHg 80%
18:00 +22°C° 0 mm 1 mps 756 mmHg 84%
19:00 +20°C° 0 mm 1 mps 755 mmHg 87%
20:00 +19°C° 0 mm 1 mps 755 mmHg 90%
21:00 +19°C° 0 mm 1 mps 755 mmHg 92%
22:00 +18°C° 0 mm 1 mps 755 mmHg 93%
23:00 +18°C° 0 mm 1 mps 755 mmHg 94%

8 August, Saturday

Time Temperature Precipitation Wind Pressure Humidity
00:00 +16°C° 0 mm 1 mps 755 mmHg 94%
01:00 +16°C° 0 mm 1 mps 755 mmHg 95%
02:00 +15°C° 0 mm 1 mps 755 mmHg 95%
03:00 +15°C° 0 mm 1 mps 755 mmHg 95%
04:00 +15°C° 0 mm 1 mps 755 mmHg 95%
05:00 +15°C° 0 mm 1 mps 755 mmHg 95%
06:00 +18°C° 0 mm 1 mps 755 mmHg 91%
07:00 +19°C° 0 mm 1 mps 755 mmHg 86%
08:00 +21°C° 0 mm 1 mps 755 mmHg 81%
09:00 +22°C° 0 mm 1 mps 755 mmHg 74%
10:00 +24°C° 0 mm 1 mps 755 mmHg 66%
11:00 +26°C° 0 mm 1 mps 755 mmHg 59%
12:00 +26°C° 0 mm 1 mps 754 mmHg 56%
13:00 +27°C° 0 mm 1 mps 754 mmHg 53%
14:00 +27°C° 0 mm 1 mps 753 mmHg 51%
15:00 +27°C° 0 mm 1 mps 753 mmHg 53%
16:00 +27°C° 0 mm 1 mps 753 mmHg 56%
17:00 +27°C° 0 mm 1 mps 752 mmHg 58%
18:00 +24°C° 0.1 mm 1 mps 752 mmHg 67%
19:00 +22°C° 0.1 mm 1 mps 752 mmHg 76%
20:00 +20°C° 0.1 mm 1 mps 752 mmHg 85%
21:00 +19°C° 0 mm 1 mps 752 mmHg 87%
22:00 +19°C° 0 mm 1 mps 752 mmHg 89%
23:00 +18°C° 0 mm 1 mps 752 mmHg 92%

9 August, Sunday

Time Temperature Precipitation Wind Pressure Humidity
00:00 +18°C° 0 mm 1 mps 751 mmHg 93%
01:00 +18°C° 0 mm 1 mps 751 mmHg 94%
02:00 +16°C° 0 mm 1 mps 751 mmHg 95%
03:00 +16°C° 0 mm 1 mps 751 mmHg 96%
04:00 +16°C° 0 mm 1 mps 750 mmHg 96%
05:00 +16°C° 0 mm 1 mps 750 mmHg 97%
06:00 +19°C° 0 mm 1 mps 750 mmHg 92%
07:00 +20°C° 0 mm 1 mps 750 mmHg 87%
08:00 +21°C° 0 mm 2 mps 750 mmHg 82%
09:00 +23°C° 0.1 mm 2 mps 750 mmHg 74%
10:00 +24°C° 0.1 mm 2 mps 750 mmHg 67%
11:00 +26°C° 0.1 mm 2 mps 750 mmHg 59%
12:00 +26°C° 0 mm 2 mps 749 mmHg 57%
13:00 +27°C° 0 mm 2 mps 749 mmHg 55%
14:00 +27°C° 0 mm 2 mps 749 mmHg 53%
15:00 +27°C° 0.1 mm 2 mps 749 mmHg 56%
16:00 +26°C° 0.1 mm 2 mps 749 mmHg 59%
17:00 +26°C° 0.1 mm 2 mps 748 mmHg 62%
18:00 +24°C° 0 mm 2 mps 748 mmHg 70%
19:00 +21°C° 0 mm 2 mps 748 mmHg 78%
20:00 +19°C° 0 mm 2 mps 748 mmHg 85%
21:00 +18°C° 0 mm 2 mps 748 mmHg 88%
22:00 +19°C° 0 mm 1 mps 748 mmHg 91%
23:00 +18°C° 0 mm 1 mps 748 mmHg 94%

10 August, Monday

Time Temperature Precipitation Wind Pressure Humidity
00:00 +16°C° 0 mm 1 mps 748 mmHg 95%
01:00 +16°C° 0 mm 2 mps 748 mmHg 96%
02:00 +16°C° 0 mm 2 mps 748 mmHg 96%
03:00 +15°C° 0 mm 2 mps 748 mmHg 97%
04:00 +15°C° 0 mm 2 mps 748 mmHg 97%
05:00 +15°C° 0 mm 2 mps 748 mmHg 97%
06:00 +17°C° 0 mm 2 mps 748 mmHg 90%
07:00 +18°C° 0 mm 2 mps 748 mmHg 83%
08:00 +20°C° 0 mm 2 mps 749 mmHg 77%
09:00 +21°C° 0 mm 2 mps 749 mmHg 69%
10:00 +24°C° 0 mm 2 mps 749 mmHg 61%
11:00 +25°C° 0 mm 3 mps 749 mmHg 54%
12:00 +26°C° 0 mm 3 mps 749 mmHg 52%
13:00 +26°C° 0 mm 3 mps 749 mmHg 51%
14:00 +27°C° 0 mm 3 mps 748 mmHg 49%
15:00 +26°C° 0 mm 2 mps 748 mmHg 52%
16:00 +26°C° 0 mm 2 mps 749 mmHg 55%
17:00 +26°C° 0 mm 2 mps 749 mmHg 58%
18:00 +24°C° 0 mm 2 mps 749 mmHg 64%
19:00 +21°C° 0 mm 2 mps 749 mmHg 69%
20:00 +20°C° 0 mm 1 mps 749 mmHg 75%
21:00 +19°C° 0 mm 1 mps 749 mmHg 77%
22:00 +18°C° 0 mm 1 mps 749 mmHg 78%
23:00 +16°C° 0 mm 1 mps 749 mmHg 80%
Show more